IUS R/B(2), 16119

Orbit data source: Space-Track

IUS R/B(2), 16119 is space debris in GEO originally from a launch on Thu, 03 Oct 1985 UTC launched from the Air Force Eastern Test Range (AFETR). Debris objects in space refer to the collection of defunct objects orbiting the Earth. Examples of debris include non-operational satellites, rocket bodies, and fragments generated from explosions, collisions, or faulty payload assembly.

Loading next visibility...
Identifier
16119, 1985-092E
Orbit
GEO
Last TLE update
1 day ago
Origin
Manufacturer
UTC CSD
Mission
Orbus 6E) (Atlantis (OV-104))"
Bus & Motor
ORBUS 6, Unknown motor
Mass
~1,100 kg wet, ~1,100 kg dry
Launch date (UTC)
1985-10-03 (40 years ago)
Launch vehicle
Unknown
Launch site
Air Force Eastern Test Range (AFETR)
Object type
Payload
Rocket body
Debris
Shape & HBR
Cyl, Unknown HBR
Radar Cross Section
8.086 m², Large (>1 m²)

Expand to show TLE details & history

TLE from 1 day ago
0 IUS R/B(2)
1 16119U 85092E   25139.61156695 -.00000008  00000-0  00000+0 0  9999
2 16119  10.7576 317.7791 0058782 171.5900 188.4729  1.01087935 22078
Epoch: 2025-05-19T14:40Z
TLE epoch observation values (Epoch: 2025-05-19T14:40:39.384Z)
Latitude
-0.00001°
Longitude
-139.9608°
Altitude
35,801.809 km
Speed
3.065 km/s
True Right ascension
21h 10m 53s
True Declination
0° 00' 00"
Sunlit
Object was in daylight at epoch
Visualization orbit readout
Latitude
5.49676°
Longitude
-109.59533°
Altitude
35,747.779 km
Speed
3.069 km/s
Apparent Right ascension
22h 56m 26s
Apparent Declination
0° 03' 36"
Sunlit
Object is in daylight
Visualization observer readout
Local Sidereal Time
01:22:11
Azimuth
228.957° WSW
Elevation
38.053°
Doppler factor
1
Orbital elements
Apogee altitude
35,806.883 km
Perigee altitude
35,313.837 km
Semi-major axis
41,938.497 km
Eccentricity
0.00588
Inclination
10.7576°
RAAN
317.7791°
Arg. of periapsis
171.59°
True anomaly
Unknown
Mean anomaly
188.4729°
Eccentric anomaly
Unknown
Mean motion
0.25271 °/min
Orbital period
1,424.55 mins
BSTAR
0
Loading historical data...
16119 neighbors
Loading maneuver chart data...
Loading SW <> Apogee altitude chart data...
Loading historical data...
Loading historical data...
Loading historical data...
Loading historical data...
Loading historical data...
Loading historical data...
Loading historical data...
Other satellites on launch #92 in the year 1985 (1985-10-03 UTC)

IUS R/B(2) Visibility forecast

Observer location: undefined°, undefined°

Span
Click to sort rows by Start time (UTC) header in descending order
Start Az.
Max El. time (UTC)
Max El. Az.
Max El.
End time (UTC)
End Az.
1440 mins2025-05-20 16:28:20.004Z228.942° WSW2025-05-20 20:51:20.004Z232.488° WSW34.392°2025-05-21 16:28:20.004Z226.057° WSW
|